Regional Weather Roundup
Issued by NWS

Home | Current Version | Previous Version | Graphics & Text | Print | Product List | Glossary On
Versions: 1 2 3 4 5 6 7 8 9 10 11 12 13 14 15 16 17 18 19 20 21 22 23 24 25 26 27 28 29 30 31 32 33 34 35 36 37 38 39 40 41 42 43 44 45 46 47 48 49 50
000
ASUS43 KTOP 231559
RWRKS

WEATHER ROUNDUP FOR KANSAS
NATIONAL WEATHER SERVICE GOODLAND KS
1100 AM CDT WED APR 23 2014

NOTE:  "FAIR" INDICATES FEW OR NO CLOUDS BELOW 12,000 FEET WITH NO
SIGNIFICANT WEATHER AND/OR OBSTRUCTIONS TO VISIBILITY.

KSZ001>006-013>018-027>032-041>047-231700-
NORTHWEST KANSAS

CITY           SKY/WX    TMP DP  RH WIND       PRES   REMARKS
GOODLAND       CLOUDY    70  45  40 SW22G31   29.59F
HAYS           PTSUNNY  N/A N/A N/A S25G32    29.68F
HILL CITY      CLOUDY    74  48  39 S18G36    29.61F
RUSSELL        PTSUNNY   72  48  42 S26G39    29.68F
$$

KSZ061>065-074>080-084>089-231700-
SOUTHWEST KANSAS

CITY           SKY/WX    TMP DP  RH WIND       PRES   REMARKS
DODGE CITY     SUNNY     72  48  42 S30G38    29.72F
ELKHART          N/A     72  44  36 S24         N/A
GARDEN CITY    MOSUNNY   75  47  36 S33G40    29.69F
GREAT BEND     MOSUNNY   72  50  46 S31G38    29.70F
LIBERAL        PTSUNNY   77  50  38 SW32G40   29.74S
$$

KSZ066>073-081>083-090>101-231700-
SOUTHEAST KANSAS

CITY           SKY/WX    TMP DP  RH WIND       PRES   REMARKS
CHANUTE        MOSUNNY   67  42  40 SE15      29.93S
COFFEYVILLE    MOSUNNY   70  44  39 S15       29.92F
HUTCHINSON     MOSUNNY   74  47  38 S25G36    29.79F
MEDICINE LODGE   N/A     73  51  46 S21G32    29.78F
NEWTON         MOSUNNY   72  43  35 S23G32    29.87S
PARSONS        MOSUNNY   71  41  33 S12G21    29.94R
WICHITA INTL   PTSUNNY   73  49  42 S21G33    29.83F
WICHITA JABRA  SUNNY     73  48  41 S24G31    29.83F
$$

KSZ007>012-019>026-033>040-048>060-102>105-231700-
NORTHEAST KANSAS

CITY           SKY/WX    TMP DP  RH WIND       PRES   REMARKS
CONCORDIA      LGT RAIN  59  44  57 SE23G32   29.76F
EMPORIA        MOSUNNY   69  39  33 SE21G26   29.88F
LAWRENCE       PTSUNNY   63  38  39 SE16      29.96S
MANHATTAN      CLOUDY    60  42  51 SE16G24   29.84F
OLATHE IND     CLOUDY    61  37  41 SE15G23   29.97F
OLATHE EXE     CLOUDY    59  37  44 SE15G23   29.96F
SALINA         CLOUDY    69  42  37 SE23G29   29.78F
TOPEKA BILLARD CLOUDY    60  38  43 SE14      29.93F
TOPEKA FORBES  CLOUDY    60  37  42 SE13      29.93F
$$



USA.gov is the U.S. government's official web portal to all federal, state and local government web resources and services.